NJE975C LIPE-LIRF

Flight info

Callsign NJE975C
Flight time N/A
Altitude 37000
Route PELEG DCT BAGNO DCT GAVRA DCT RITEB
Aircraft C750/M-SBDE3FGHRWXY/S

Departure

Time 2026-04-29 17:53
Airport Bologna Guglielmo Marconi Airport (LIPE)

Arrival

Time N/A
Airport Rome–Fiumicino Leonardo da Vinci International Airport (LIRF)
Time Latitude Longitude Altitude Speed Heading
2026-04-29 17:38 44.53578 11.27791 127 ft 0 kts 209°
2026-04-29 17:48 44.53576 11.27790 127 ft 1 kts 209°
2026-04-29 17:49 44.53564 11.27776 126 ft 2 kts 239°
2026-04-29 17:49 44.53573 11.27732 125 ft 6 kts 294°
2026-04-29 17:49 44.53593 11.27716 126 ft 5 kts
2026-04-29 17:49 44.53650 11.27756 126 ft 14 kts 27°
2026-04-29 17:50 44.53722 11.27803 126 ft 8 kts
2026-04-29 17:50 44.53747 11.27754 127 ft 8 kts 295°
2026-04-29 17:50 44.53778 11.27666 126 ft 12 kts 297°
2026-04-29 17:50 44.53838 11.27584 127 ft 10 kts 344°
2026-04-29 17:51 44.53915 11.27588 124 ft 13 kts 31°
2026-04-29 17:51 44.53972 11.27678 125 ft 2 kts 85°
2026-04-29 17:51 44.53966 11.27694 125 ft 2 kts 115°
2026-04-29 17:51 44.53965 11.27698 125 ft 0 kts 116°
2026-04-29 17:52 44.53965 11.27699 125 ft 0 kts 116°
2026-04-29 17:52 44.53947 11.27750 122 ft 33 kts 116°
2026-04-29 17:53 44.53652 11.28568 126 ft 141 kts 116°
2026-04-29 17:53 44.53183 11.29826 624 ft 146 kts 113°
2026-04-29 17:53 44.52753 11.31134 1418 ft 152 kts 108°
2026-04-29 17:53 44.52554 11.32647 2130 ft 162 kts 87°
2026-04-29 17:54 44.52961 11.34164 2804 ft 175 kts 59°
2026-04-29 17:54 44.53479 11.35017 3431 ft 174 kts 49°
2026-04-29 17:54 44.54435 11.36145 4153 ft 187 kts 37°
2026-04-29 17:54 44.55606 11.37106 4807 ft 204 kts 30°
2026-04-29 17:55 44.57369 11.38437 5564 ft 221 kts 22°
2026-04-29 17:55 44.58825 11.39001 6516 ft 206 kts 12°
2026-04-29 17:55 44.60233 11.39544 7194 ft 217 kts 13°
2026-04-29 17:55 44.61727 11.40173 7850 ft 228 kts 15°
2026-04-29 17:56 44.62739 11.40675 8466 ft 228 kts 19°
2026-04-29 17:56 44.64201 11.41567 9324 ft 233 kts 21°
2026-04-29 17:56 44.65729 11.42314 9989 ft 236 kts
2026-04-29 17:56 44.67346 11.41952 10404 ft 241 kts 332°
2026-04-29 17:57 44.68595 11.40421 10922 ft 241 kts 303°
2026-04-29 17:57 44.69066 11.38188 11527 ft 242 kts 272°
2026-04-29 17:57 44.68733 11.35925 12366 ft 236 kts 247°
2026-04-29 17:57 44.67723 11.34100 12996 ft 244 kts 225°
2026-04-29 17:58 44.66343 11.32646 13562 ft 250 kts 220°
2026-04-29 17:58 44.64985 11.31095 14068 ft 255 kts 225°
2026-04-29 17:58 44.63695 11.29362 14588 ft 258 kts 227°
2026-04-29 17:58 44.62403 11.27603 15153 ft 259 kts 227°
2026-04-29 17:59 44.60993 11.26003 15659 ft 264 kts 220°
2026-04-29 17:59 44.59535 11.24434 16362 ft 264 kts 221°
2026-04-29 17:59 44.58075 11.22842 16935 ft 267 kts 221°
2026-04-29 17:59 44.56596 11.21242 17526 ft 270 kts 221°
2026-04-29 18:00 44.55099 11.19632 18125 ft 272 kts 221°
2026-04-29 18:00 44.53589 11.18006 18696 ft 275 kts 221°
2026-04-29 18:00 44.52065 11.16365 19228 ft 277 kts 221°
2026-04-29 18:00 44.50531 11.14713 19785 ft 279 kts 221°
2026-04-29 18:01 44.48985 11.13051 20337 ft 281 kts 221°
2026-04-29 18:01 44.47428 11.11379 20903 ft 283 kts 221°
2026-04-29 18:01 44.45676 11.10110 21320 ft 297 kts 199°
2026-04-29 18:01 44.43599 11.09947 21901 ft 305 kts 175°
2026-04-29 18:02 44.41599 11.11003 22416 ft 312 kts 152°
2026-04-29 18:02 44.39754 11.12628 22895 ft 315 kts 149°
2026-04-29 18:02 44.37919 11.14318 23462 ft 318 kts 149°
2026-04-29 18:02 44.36046 11.15995 23939 ft 321 kts 150°
2026-04-29 18:03 44.34143 11.17666 24363 ft 323 kts 150°
2026-04-29 18:03 44.32170 11.19163 24717 ft 324 kts 159°
2026-04-29 18:03 44.30065 11.20318 25154 ft 325 kts 163°
2026-04-29 18:03 44.27951 11.21439 25559 ft 328 kts 161°
2026-04-29 18:04 44.25858 11.22745 25963 ft 331 kts 158°
2026-04-29 18:04 44.23768 11.24116 26379 ft 333 kts 159°
2026-04-29 18:04 44.21644 11.25427 26779 ft 335 kts 160°
2026-04-29 18:04 44.19527 11.26699 27165 ft 328 kts 160°
2026-04-29 18:05 44.17399 11.28001 27182 ft 339 kts 159°
2026-04-29 18:05 44.15241 11.29340 27177 ft 340 kts 159°
2026-04-29 18:05 44.13085 11.30673 27169 ft 338 kts 159°
2026-04-29 18:05 44.10933 11.31989 27159 ft 338 kts 160°
2026-04-29 18:06 44.08776 11.33307 27161 ft 339 kts 160°
2026-04-29 18:06 44.06615 11.34633 27160 ft 339 kts 159°
2026-04-29 18:06 44.04455 11.35959 27143 ft 339 kts 159°
2026-04-29 18:06 44.02295 11.37280 27150 ft 339 kts 159°
2026-04-29 18:07 44.00135 11.38600 27147 ft 339 kts 159°
2026-04-29 18:07 43.97976 11.39919 27144 ft 339 kts 159°
2026-04-29 18:07 43.95817 11.41237 27137 ft 339 kts 159°
2026-04-29 18:07 43.93658 11.42554 27134 ft 339 kts 159°
2026-04-29 18:08 43.91499 11.43870 27133 ft 339 kts 160°
2026-04-29 18:08 43.89342 11.45183 27134 ft 339 kts 159°
2026-04-29 18:08 43.87189 11.46493 27113 ft 339 kts 159°
2026-04-29 18:08 43.85025 11.47809 27116 ft 339 kts 159°
2026-04-29 18:09 43.82865 11.49122 27119 ft 338 kts 159°
2026-04-29 18:09 43.80716 11.50426 27120 ft 337 kts 159°
2026-04-29 18:09 43.78567 11.51729 27109 ft 337 kts 159°
2026-04-29 18:09 43.76420 11.53030 27112 ft 337 kts 159°
2026-04-29 18:10 43.74277 11.54328 27109 ft 337 kts 159°
2026-04-29 18:10 43.72128 11.55629 27109 ft 337 kts 159°
2026-04-29 18:10 43.70004 11.56913 27100 ft 337 kts 159°
2026-04-29 18:10 43.67864 11.58206 27104 ft 337 kts 159°
2026-04-29 18:11 43.65711 11.59506 27098 ft 337 kts 159°
2026-04-29 18:11 43.63561 11.60803 27092 ft 337 kts 159°
2026-04-29 18:11 43.61423 11.62091 27080 ft 335 kts 160°
2026-04-29 18:11 43.59285 11.63378 27093 ft 336 kts 160°
2026-04-29 18:12 43.57138 11.64670 27090 ft 337 kts 159°
2026-04-29 18:12 43.54992 11.65963 27086 ft 336 kts 159°
2026-04-29 18:12 43.52848 11.67251 27081 ft 336 kts 160°
2026-04-29 18:12 43.50703 11.68538 27084 ft 337 kts 160°
2026-04-29 18:13 43.48553 11.69827 27089 ft 337 kts 160°
2026-04-29 18:13 43.46402 11.71118 27072 ft 337 kts 160°
2026-04-29 18:13 43.44250 11.72407 27083 ft 337 kts 160°
2026-04-29 18:13 43.42090 11.73699 26933 ft 340 kts 160°
2026-04-29 18:14 43.39898 11.74837 26666 ft 334 kts 167°
2026-04-29 18:14 43.37656 11.75538 26393 ft 328 kts 173°
2026-04-29 18:14 43.35418 11.76103 26142 ft 326 kts 173°
2026-04-29 18:14 43.33201 11.76800 25892 ft 327 kts 169°
2026-04-29 18:15 43.31011 11.77637 25644 ft 326 kts 168°
2026-04-29 18:15 43.28824 11.78436 25400 ft 324 kts 169°
2026-04-29 18:15 43.26636 11.79166 25160 ft 323 kts 170°
2026-04-29 18:15 43.24455 11.79902 24921 ft 322 kts 169°
2026-04-29 18:16 43.22279 11.80663 24688 ft 328 kts 169°
2026-04-29 18:16 43.19985 11.81457 24455 ft 355 kts 169°
2026-04-29 18:16 43.17474 11.82315 24297 ft 386 kts 169°
2026-04-29 18:16 43.14844 11.83229 24127 ft 390 kts 168°
2026-04-29 18:17 43.12218 11.84148 23932 ft 389 kts 168°
2026-04-29 18:17 43.09593 11.85051 23719 ft 389 kts 169°
2026-04-29 18:17 43.06972 11.85946 23466 ft 388 kts 169°
2026-04-29 18:17 43.04363 11.86844 23190 ft 386 kts 169°
2026-04-29 18:18 43.01767 11.87739 22908 ft 384 kts 169°
2026-04-29 18:18 42.99189 11.88624 22624 ft 381 kts 169°
2026-04-29 18:18 42.96601 11.89509 22363 ft 390 kts 169°
2026-04-29 18:18 42.93969 11.90410 22097 ft 388 kts 169°
2026-04-29 18:19 42.91360 11.91306 21840 ft 386 kts 168°
2026-04-29 18:19 42.88763 11.92195 21584 ft 384 kts 168°
2026-04-29 18:19 42.86215 11.93065 21332 ft 381 kts 169°
2026-04-29 18:19 42.83644 11.93950 21060 ft 381 kts 168°
2026-04-29 18:20 42.81085 11.94893 20662 ft 380 kts 167°
2026-04-29 18:20 42.78554 11.95871 20196 ft 377 kts 167°
2026-04-29 18:20 42.76034 11.96815 19661 ft 375 kts 168°
2026-04-29 18:20 42.73508 11.97734 18939 ft 373 kts 168°
2026-04-29 18:21 42.71017 11.98651 17889 ft 370 kts 167°
2026-04-29 18:21 42.68559 11.99570 16889 ft 364 kts 167°
2026-04-29 18:21 42.66141 12.00469 15932 ft 357 kts 167°
2026-04-29 18:21 42.63762 12.01345 15009 ft 351 kts 167°
2026-04-29 18:22 42.61417 12.02209 14105 ft 346 kts 167°
2026-04-29 18:22 42.59118 12.03059 13152 ft 340 kts 167°
2026-04-29 18:22 42.56854 12.03896 12223 ft 334 kts 167°
2026-04-29 18:22 42.54630 12.04715 11329 ft 328 kts 167°
2026-04-29 18:23 42.52446 12.05519 10425 ft 323 kts 167°
2026-04-29 18:23 42.47929 12.07181 8543 ft 311 kts 167°
2026-04-29 18:23 42.45860 12.07942 7677 ft 305 kts 167°
2026-04-29 18:24 42.43842 12.08683 6877 ft 282 kts 167°
2026-04-29 18:24 42.41949 12.09380 6079 ft 280 kts 167°
2026-04-29 18:24 42.40696 12.09838 5672 ft 274 kts 167°